Time,TemperatureF,DewpointF,PressureIn,WindDirection,WindDirectionDegrees,WindSpeedMPH,WindSpeedGustMPH,Humidity,HourlyPrecipIn,Conditions,Clouds,dailyrainin,SoftwareType,DateUTC
2013-10-16 00:00:00,71.3,68.9,29.94,NE,39,1.4,3.5,92,0.00,CLR,,0.00,WeatherDisplay:10.37,2013-10-16 04:00:00,
2013-10-16 00:01:00,71.3,68.9,29.94,NE,44,1.6,3.5,92,0.00,CLR,,0.00,WeatherDisplay:10.37,2013-10-16 04:01:00,
2013-10-16 00:02:00,71.3,68.9,29.94,NE,47,3.0,3.5,92,0.00,CLR,,0.00,WeatherDisplay:10.37,2013-10-16 04:02:00,
2013-10-16 00:07:00,71.2,68.8,29.94,NE,41,1.0,2.3,92,0.00,CLR,,0.00,WeatherDisplay:10.37,2013-10-16 04:07:00,
2013-10-16 00:12:00,71.1,68.7,29.94,NNE,22,0.9,2.3,92,0.00,CLR,,0.00,WeatherDisplay:10.37,2013-10-16 04:12:00,
2013-10-16 00:17:00,71.0,68.9,29.94,NNE,29,1.9,4.6,93,0.00,CLR,,0.00,WeatherDisplay:10.37,2013-10-16 04:17:00,
2013-10-16 00:22:00,70.9,68.8,29.93,North,360,0.7,2.3,93,0.00,CLR,,0.00,WeatherDisplay:10.37,2013-10-16 04:22:00,
2013-10-16 00:27:00,70.8,68.7,29.93,NNE,33,1.6,2.3,93,0.00,CLR,,0.00,WeatherDisplay:10.37,2013-10-16 04:27:00,
2013-10-16 00:32:00,70.8,68.7,29.93,NNE,19,0.7,2.3,93,0.00,CLR,,0.00,WeatherDisplay:10.37,2013-10-16 04:32:00,
2013-10-16 00:37:00,70.7,68.6,29.93,NNE,30,3.2,4.0,93,0.00,CLR,,0.00,WeatherDisplay:10.37,2013-10-16 04:37:00,
2013-10-16 00:42:00,70.7,68.6,29.93,NE,37,1.5,4.6,93,0.00,CLR,,0.00,WeatherDisplay:10.37,2013-10-16 04:42:00,
2013-10-16 00:47:00,70.6,68.5,29.93,NE,53,1.1,3.5,93,0.00,CLR,,0.00,WeatherDisplay:10.37,2013-10-16 04:47:00,
2013-10-16 00:52:00,70.6,68.8,29.93,NNW,333,1.0,3.5,94,0.00,CLR,,0.00,WeatherDisplay:10.37,2013-10-16 04:52:00,
2013-10-16 00:57:00,70.5,68.7,29.93,NNE,27,0.5,3.5,94,0.00,CLR,,0.00,WeatherDisplay:10.37,2013-10-16 04:57:00,
2013-10-16 01:02:00,70.5,68.7,29.93,North,8,3.8,3.8,94,0.00,CLR,,0.00,WeatherDisplay:10.37,2013-10-16 05:02:00,
2013-10-16 01:07:00,70.5,68.7,29.93,NNE,23,3.5,4.0,94,0.00,CLR,,0.00,WeatherDisplay:10.37,2013-10-16 05:07:00,
2013-10-16 01:12:00,70.4,68.6,29.93,NE,43,0.8,5.8,94,0.00,CLR,,0.00,WeatherDisplay:10.37,2013-10-16 05:12:00,
2013-10-16 01:17:00,70.3,68.5,29.93,NE,37,3.0,3.5,94,0.00,CLR,,0.00,WeatherDisplay:10.37,2013-10-16 05:17:00,
2013-10-16 01:22:00,70.2,68.4,29.93,NE,47,2.0,4.0,94,0.00,CLR,,0.00,WeatherDisplay:10.37,2013-10-16 05:22:00,
2013-10-16 01:27:00,70.1,68.3,29.93,NNE,25,1.2,3.0,94,0.00,CLR,,0.00,WeatherDisplay:10.37,2013-10-16 05:27:00,
2013-10-16 01:32:00,70.0,68.2,29.92,NNE,23,1.1,5.8,94,0.00,CLR,,0.00,WeatherDisplay:10.37,2013-10-16 05:32:00,
2013-10-16 01:37:00,69.8,68.0,29.92,NE,51,1.7,3.5,94,0.00,CLR,,0.00,WeatherDisplay:10.37,2013-10-16 05:37:00,
2013-10-16 08:07:00,69.9,68.4,29.94,SE,127,0.2,11.5,95,0.00,CLR,,0.00,WeatherDisplay:10.37,2013-10-16 12:07:00,
2013-10-16 08:12:00,70.0,68.5,29.94,ESE,108,2.0,3.5,95,0.00,OVC,,0.00,WeatherDisplay:10.37,2013-10-16 12:12:00,
2013-10-16 08:17:00,70.0,68.5,29.94,East,94,0.5,2.3,95,0.00,OVC,,0.00,WeatherDisplay:10.37,2013-10-16 12:17:00,
2013-10-16 08:22:00,70.1,68.6,29.94,ESE,104,0.1,1.2,95,0.00,OVC,,0.00,WeatherDisplay:10.37,2013-10-16 12:22:00,
2013-10-16 08:27:00,70.3,68.8,29.94,ESE,115,0.0,0.0,95,0.00,OVC,,0.00,WeatherDisplay:10.37,2013-10-16 12:27:00,
2013-10-16 08:32:00,70.6,68.8,29.94,NNW,329,0.0,1.2,94,0.00,OVC,,0.00,WeatherDisplay:10.37,2013-10-16 12:32:00,
2013-10-16 08:37:00,70.8,69.0,29.94,SE,136,0.0,1.2,94,0.00,OVC,,0.00,WeatherDisplay:10.37,2013-10-16 12:37:00,
2013-10-16 08:42:00,71.0,69.2,29.94,NNE,18,0.1,1.2,94,0.00,OVC,,0.00,WeatherDisplay:10.37,2013-10-16 12:42:00,
2013-10-16 08:47:00,71.4,69.6,29.94,East,82,0.1,3.5,94,0.00,OVC,,0.00,WeatherDisplay:10.37,2013-10-16 12:47:00,
2013-10-16 08:52:00,72.0,69.9,29.94,East,93,0.3,2.0,93,0.00,OVC,,0.00,WeatherDisplay:10.37,2013-10-16 12:52:00,
2013-10-16 08:57:00,72.2,69.4,29.94,East,82,1.6,4.0,91,0.00,OVC,,0.00,WeatherDisplay:10.37,2013-10-16 12:57:00,
2013-10-16 09:02:00,72.4,69.6,29.94,East,94,0.6,1.2,91,0.00,OVC,,0.00,WeatherDisplay:10.37,2013-10-16 13:02:00,
2013-10-16 09:07:00,72.6,69.8,29.94,ESE,123,0.9,2.3,91,0.00,OVC,,0.00,WeatherDisplay:10.37,2013-10-16 13:07:00,
2013-10-16 09:12:00,72.7,69.9,29.95,SSE,148,1.5,4.0,91,0.00,OVC,,0.00,WeatherDisplay:10.37,2013-10-16 13:12:00,
2013-10-16 09:17:00,73.0,69.9,29.95,NE,53,1.5,3.5,90,0.00,OVC,,0.00,WeatherDisplay:10.37,2013-10-16 13:17:00,
2013-10-16 09:22:00,73.3,70.2,29.95,NNE,25,1.7,4.6,90,0.00,OVC,,0.00,WeatherDisplay:10.37,2013-10-16 13:22:00,
2013-10-16 09:27:00,73.3,70.2,29.95,North,4,0.3,2.3,90,0.00,OVC,,0.00,WeatherDisplay:10.37,2013-10-16 13:27:00,
2013-10-16 09:32:00,73.8,70.4,29.95,NE,46,0.1,1.2,89,0.00,OVC,,0.00,WeatherDisplay:10.37,2013-10-16 13:32:00,
2013-10-16 09:37:00,74.1,70.3,29.95,ENE,65,0.2,2.3,88,0.00,OVC,,0.00,WeatherDisplay:10.37,2013-10-16 13:37:00,
2013-10-16 09:42:00,74.4,70.6,29.95,NE,54,1.7,3.5,88,0.00,OVC,,0.00,WeatherDisplay:10.37,2013-10-16 13:42:00,
2013-10-16 09:47:00,74.3,70.5,29.95,NNE,30,0.9,3.5,88,0.00,OVC,,0.00,WeatherDisplay:10.37,2013-10-16 13:47:00,
2013-10-16 09:52:00,74.4,70.6,29.95,NE,51,0.9,2.3,88,0.00,OVC,,0.00,WeatherDisplay:10.37,2013-10-16 13:52:00,
2013-10-16 09:57:00,74.9,70.8,29.95,ESE,122,0.6,3.5,87,0.00,OVC,,0.00,WeatherDisplay:10.37,2013-10-16 13:57:00,
2013-10-16 10:02:00,75.7,71.2,29.95,ENE,60,0.4,1.2,86,0.00,OVC,,0.00,WeatherDisplay:10.37,2013-10-16 14:02:00,
2013-10-16 10:07:00,75.7,70.9,29.95,ESE,106,0.0,1.2,85,0.00,OVC,,0.00,WeatherDisplay:10.37,2013-10-16 14:07:00,
2013-10-16 10:12:00,75.9,71.1,29.94,ESE,113,0.1,1.2,85,0.00,OVC,,0.00,WeatherDisplay:10.37,2013-10-16 14:12:00,
2013-10-16 10:17:00,76.3,71.5,29.95,NE,40,0.7,2.3,85,0.00,OVC,,0.00,WeatherDisplay:10.37,2013-10-16 14:17:00,
2013-10-16 10:22:00,76.8,71.2,29.95,ESE,105,0.7,2.3,83,0.00,SCT,,0.00,WeatherDisplay:10.37,2013-10-16 14:22:00,
2013-10-16 10:27:00,77.2,71.6,29.95,ESE,106,0.0,1.2,83,0.00,SCT,,0.00,WeatherDisplay:10.37,2013-10-16 14:27:00,
2013-10-16 10:32:00,77.7,71.8,29.95,ESE,114,1.1,4.6,82,0.00,SCT,,0.00,WeatherDisplay:10.37,2013-10-16 14:32:00,
2013-10-16 10:37:00,78.3,72.0,29.95,ESE,108,0.1,1.2,81,0.00,SCT,,0.00,WeatherDisplay:10.37,2013-10-16 14:37:00,
2013-10-16 10:42:00,78.0,71.7,29.95,ENE,60,0.4,2.3,81,0.00,SCT,,0.00,WeatherDisplay:10.37,2013-10-16 14:42:00,
2013-10-16 10:47:00,78.1,71.8,29.95,NE,46,0.8,3.5,81,0.00,SCT,,0.00,WeatherDisplay:10.37,2013-10-16 14:47:00,
2013-10-16 10:52:00,78.1,72.2,29.95,NE,53,0.0,0.0,82,0.00,SCT,,0.00,WeatherDisplay:10.37,2013-10-16 14:52:00,
2013-10-16 10:57:00,78.9,72.6,29.95,NNE,15,1.2,3.5,81,0.00,SCT,,0.00,WeatherDisplay:10.37,2013-10-16 14:57:00,
2013-10-16 11:02:00,79.6,72.9,29.95,East,84,0.1,1.2,80,0.00,CLR,,0.00,WeatherDisplay:10.37,2013-10-16 15:02:00,
2013-10-16 11:07:00,80.1,73.0,29.94,ENE,68,1.1,3.5,79,0.00,CLR,,0.00,WeatherDisplay:10.37,2013-10-16 15:07:00,
2013-10-16 11:12:00,80.0,71.8,29.95,ESE,110,1.7,3.5,76,0.00,CLR,,0.00,WeatherDisplay:10.37,2013-10-16 15:12:00,
2013-10-16 11:17:00,80.1,72.2,29.95,NNW,340,0.4,1.2,77,0.00,CLR,,0.00,WeatherDisplay:10.37,2013-10-16 15:17:00,
2013-10-16 11:22:00,79.6,71.8,29.95,NNE,27,3.0,4.0,77,0.00,CLR,,0.00,WeatherDisplay:10.37,2013-10-16 15:22:00,
2013-10-16 11:27:00,79.1,72.0,29.95,NNE,25,2.3,3.5,79,0.00,CLR,,0.00,WeatherDisplay:10.37,2013-10-16 15:27:00,
2013-10-16 11:32:00,78.9,71.8,29.95,North,6,1.9,3.5,79,0.00,CLR,,0.00,WeatherDisplay:10.37,2013-10-16 15:32:00,
2013-10-16 11:37:00,78.8,71.7,29.95,NE,46,0.6,2.3,79,0.00,CLR,,0.00,WeatherDisplay:10.37,2013-10-16 15:37:00,
2013-10-16 11:42:00,78.9,72.2,29.95,NE,51,0.1,1.2,80,0.00,CLR,,0.00,WeatherDisplay:10.37,2013-10-16 15:42:00,
2013-10-16 11:47:00,79.3,72.2,29.95,East,100,0.2,1.2,79,0.00,CLR,,0.00,WeatherDisplay:10.37,2013-10-16 15:47:00,
2013-10-16 11:52:00,79.3,71.8,29.95,South,171,3.3,4.6,78,0.00,CLR,,0.00,WeatherDisplay:10.37,2013-10-16 15:52:00,
2013-10-16 11:57:00,79.3,72.2,29.95,WSW,239,2.6,5.8,79,0.00,CLR,,0.00,WeatherDisplay:10.37,2013-10-16 15:57:00,
2013-10-16 12:02:00,79.3,72.2,29.95,SSE,166,0.6,2.3,79,0.00,FEW,,0.00,WeatherDisplay:10.37,2013-10-16 16:02:00,
2013-10-16 12:07:00,79.6,72.5,29.95,WNW,298,2.0,3.5,79,0.00,FEW,,0.00,WeatherDisplay:10.37,2013-10-16 16:07:00,
2013-10-16 12:12:00,79.3,72.2,29.95,SW,220,0.0,0.0,79,0.00,FEW,,0.00,WeatherDisplay:10.37,2013-10-16 16:12:00,
2013-10-16 12:17:00,79.1,72.0,29.95,West,273,0.1,1.2,79,0.00,FEW,,0.00,WeatherDisplay:10.37,2013-10-16 16:17:00,
2013-10-16 12:22:00,79.2,72.5,29.94,NE,34,0.3,2.3,80,0.00,FEW,,0.00,WeatherDisplay:10.37,2013-10-16 16:22:00,
2013-10-16 12:27:00,79.1,72.4,29.94,NE,37,3.3,5.8,80,0.00,FEW,,0.00,WeatherDisplay:10.37,2013-10-16 16:27:00,
2013-10-16 12:32:00,78.9,72.2,29.94,NW,323,2.8,4.6,80,0.00,FEW,,0.00,WeatherDisplay:10.37,2013-10-16 16:32:00,
2013-10-16 12:37:00,78.9,72.6,29.94,NW,326,0.0,0.0,81,0.00,FEW,,0.00,WeatherDisplay:10.37,2013-10-16 16:37:00,
2013-10-16 12:42:00,78.7,72.0,29.94,NW,312,1.0,3.5,80,0.00,FEW,,0.00,WeatherDisplay:10.37,2013-10-16 16:42:00,
2013-10-16 12:47:00,78.4,72.1,29.94,NNW,342,0.6,2.3,81,0.00,FEW,,0.00,WeatherDisplay:10.37,2013-10-16 16:47:00,
2013-10-16 12:52:00,78.3,72.0,29.94,NNW,338,0.1,1.2,81,0.00,FEW,,0.00,WeatherDisplay:10.37,2013-10-16 16:52:00,
2013-10-16 12:57:00,78.4,71.7,29.94,NNW,347,1.7,3.5,80,0.00,FEW,,0.00,WeatherDisplay:10.37,2013-10-16 16:57:00,
2013-10-16 13:02:00,78.5,71.8,29.94,NNW,345,0.3,1.2,80,0.00,CLR,,0.00,WeatherDisplay:10.37,2013-10-16 17:02:00,
2013-10-16 13:07:00,78.8,72.1,29.94,North,8,0.1,1.2,80,0.00,CLR,,0.00,WeatherDisplay:10.37,2013-10-16 17:07:00,
2013-10-16 13:12:00,78.8,72.1,29.94,North,359,0.0,1.2,80,0.00,CLR,,0.00,WeatherDisplay:10.37,2013-10-16 17:12:00,
2013-10-16 13:17:00,78.5,72.2,29.94,North,350,2.9,5.8,81,0.00,CLR,,0.00,WeatherDisplay:10.37,2013-10-16 17:17:00,
2013-10-16 13:22:00,78.2,71.9,29.93,NNE,33,2.9,4.6,81,0.00,CLR,,0.00,WeatherDisplay:10.37,2013-10-16 17:22:00,
2013-10-16 13:27:00,78.2,71.9,29.93,NNW,336,0.3,3.5,81,0.00,CLR,,0.00,WeatherDisplay:10.37,2013-10-16 17:27:00,
2013-10-16 13:32:00,78.8,72.5,29.93,NE,43,1.0,2.3,81,0.00,CLR,,0.00,WeatherDisplay:10.37,2013-10-16 17:32:00,
2013-10-16 13:37:00,79.6,72.5,29.93,NNW,335,2.0,3.5,79,0.00,CLR,,0.00,WeatherDisplay:10.37,2013-10-16 17:37:00,
2013-10-16 13:42:00,80.3,72.8,29.93,NNE,20,5.1,8.1,78,0.00,CLR,,0.00,WeatherDisplay:10.37,2013-10-16 17:42:00,
2013-10-16 13:47:00,80.7,72.8,29.92,NNE,32,4.3,5.8,77,0.00,CLR,,0.00,WeatherDisplay:10.37,2013-10-16 17:47:00,
2013-10-16 13:52:00,80.6,72.3,29.92,East,89,0.2,1.2,76,0.00,CLR,,0.00,WeatherDisplay:10.37,2013-10-16 17:52:00,
2013-10-16 13:57:00,81.5,72.8,29.92,NW,321,0.1,3.5,75,0.00,CLR,,0.00,WeatherDisplay:10.37,2013-10-16 17:57:00,
2013-10-16 14:02:00,82.2,72.7,29.92,NW,315,0.5,2.3,73,0.00,CLR,,0.00,WeatherDisplay:10.37,2013-10-16 18:02:00,
2013-10-16 14:07:00,82.7,71.9,29.92,West,274,0.1,3.5,70,0.00,CLR,,0.00,WeatherDisplay:10.37,2013-10-16 18:07:00,
2013-10-16 14:12:00,82.8,72.4,29.92,SW,233,1.3,2.3,71,0.00,CLR,,0.00,WeatherDisplay:10.37,2013-10-16 18:12:00,
2013-10-16 14:17:00,83.2,73.2,29.92,NNE,16,1.4,3.5,72,0.00,CLR,,0.00,WeatherDisplay:10.37,2013-10-16 18:17:00,
2013-10-16 14:22:00,84.0,72.7,29.91,WSW,239,2.3,3.5,69,0.00,CLR,,0.00,WeatherDisplay:10.37,2013-10-16 18:22:00,
2013-10-16 14:27:00,83.4,72.6,29.92,NW,322,1.1,3.5,70,0.00,CLR,,0.00,WeatherDisplay:10.37,2013-10-16 18:27:00,
2013-10-16 14:28:00,83.4,72.6,29.92,SW,217,2.5,8.0,70,0.00,CLR,,0.00,WeatherDisplay:10.37,2013-10-16 18:28:00,
2013-10-16 14:33:00,83.2,72.4,29.91,NW,307,0.8,3.5,70,0.00,CLR,,0.00,WeatherDisplay:10.37,2013-10-16 18:33:00,
2013-10-16 14:38:00,83.3,72.5,29.91,NNW,347,0.0,2.3,70,0.00,CLR,,0.00,WeatherDisplay:10.37,2013-10-16 18:38:00,
2013-10-16 14:43:00,83.8,71.7,29.91,NW,326,2.5,5.0,67,0.00,CLR,,0.00,WeatherDisplay:10.37,2013-10-16 18:43:00,
2013-10-16 14:48:00,83.8,72.1,29.91,WSW,254,1.6,4.6,68,0.00,CLR,,0.00,WeatherDisplay:10.37,2013-10-16 18:48:00,
2013-10-16 14:53:00,83.9,72.2,29.91,WNW,294,1.8,2.3,68,0.00,CLR,,0.00,WeatherDisplay:10.37,2013-10-16 18:53:00,
2013-10-16 14:58:00,84.1,72.8,29.91,NW,318,1.6,4.0,69,0.00,CLR,,0.00,WeatherDisplay:10.37,2013-10-16 18:58:00,
2013-10-16 15:03:00,83.8,71.7,29.90,West,259,3.3,4.6,67,0.00,CLR,,0.00,WeatherDisplay:10.37,2013-10-16 19:03:00,
2013-10-16 15:08:00,83.4,72.6,29.90,SW,231,1.2,2.3,70,0.00,CLR,,0.00,WeatherDisplay:10.37,2013-10-16 19:08:00,
2013-10-16 15:13:00,83.0,72.2,29.90,NNW,335,0.3,2.3,70,0.00,CLR,,0.00,WeatherDisplay:10.37,2013-10-16 19:13:00,
2013-10-16 15:18:00,82.4,71.6,29.90,WNW,291,0.6,2.3,70,0.00,CLR,,0.00,WeatherDisplay:10.37,2013-10-16 19:18:00,
2013-10-16 15:23:00,82.3,71.5,29.90,NNE,32,1.0,1.2,70,0.00,CLR,,0.00,WeatherDisplay:10.37,2013-10-16 19:23:00,
2013-10-16 15:28:00,82.4,72.0,29.90,WNW,288,1.7,4.6,71,0.00,CLR,,0.00,WeatherDisplay:10.37,2013-10-16 19:28:00,
2013-10-16 15:33:00,82.6,72.2,29.90,SW,233,0.0,1.2,71,0.00,CLR,,0.00,WeatherDisplay:10.37,2013-10-16 19:33:00,
2013-10-16 15:38:00,82.2,71.9,29.90,NNW,335,1.4,3.0,71,0.00,CLR,,0.00,WeatherDisplay:10.37,2013-10-16 19:38:00,
2013-10-16 15:43:00,82.0,72.1,29.90,NW,315,2.3,4.6,72,0.00,CLR,,0.00,WeatherDisplay:10.37,2013-10-16 19:43:00,
2013-10-16 15:48:00,81.6,71.7,29.89,NNW,338,1.8,2.3,72,0.00,CLR,,0.00,WeatherDisplay:10.37,2013-10-16 19:48:00,
2013-10-16 15:53:00,81.2,71.7,29.89,WNW,294,1.0,5.8,73,0.00,CLR,,0.00,WeatherDisplay:10.37,2013-10-16 19:53:00,
2013-10-16 15:58:00,81.0,71.9,29.89,WNW,290,1.7,2.3,74,0.00,CLR,,0.00,WeatherDisplay:10.37,2013-10-16 19:58:00,
2013-10-16 16:03:00,80.8,71.7,29.89,WNW,285,1.7,3.5,74,0.00,SCT,,0.00,WeatherDisplay:10.37,2013-10-16 20:03:00,
2013-10-16 16:08:00,80.3,71.3,29.89,WNW,290,0.4,3.5,74,0.00,SCT,,0.00,WeatherDisplay:10.37,2013-10-16 20:08:00,
2013-10-16 16:13:00,80.3,71.6,29.89,NNW,336,2.9,3.5,75,0.00,SCT,,0.00,WeatherDisplay:10.37,2013-10-16 20:13:00,
2013-10-16 16:18:00,80.9,71.8,29.89,WNW,295,0.0,2.3,74,0.00,SCT,,0.00,WeatherDisplay:10.37,2013-10-16 20:18:00,
2013-10-16 16:23:00,81.1,71.6,29.89,NNE,16,2.7,3.5,73,0.00,SCT,,0.00,WeatherDisplay:10.37,2013-10-16 20:23:00,
2013-10-16 16:28:00,81.9,72.4,29.89,West,277,0.7,2.0,73,0.00,SCT,,0.00,WeatherDisplay:10.37,2013-10-16 20:28:00,
2013-10-16 16:33:00,81.9,72.0,29.89,NNW,345,1.3,3.5,72,0.00,SCT,,0.00,WeatherDisplay:10.37,2013-10-16 20:33:00,
2013-10-16 16:38:00,81.8,71.5,29.89,North,8,0.5,1.2,71,0.00,SCT,,0.00,WeatherDisplay:10.37,2013-10-16 20:38:00,
2013-10-16 16:43:00,82.2,71.9,29.89,NW,326,1.2,1.2,71,0.00,SCT,,0.00,WeatherDisplay:10.37,2013-10-16 20:43:00,
2013-10-16 16:48:00,82.7,72.3,29.89,WNW,283,0.0,2.3,71,0.00,SCT,,0.00,WeatherDisplay:10.37,2013-10-16 20:48:00,
2013-10-16 16:53:00,83.0,71.8,29.89,West,273,1.5,2.0,69,0.00,SCT,,0.00,WeatherDisplay:10.37,2013-10-16 20:53:00,
2013-10-16 16:58:00,82.6,71.4,29.89,WNW,302,0.9,2.3,69,0.00,SCT,,0.00,WeatherDisplay:10.37,2013-10-16 20:58:00,
2013-10-16 17:03:00,82.0,71.7,29.89,North,6,1.4,3.5,71,0.00,SCT,,0.00,WeatherDisplay:10.37,2013-10-16 21:03:00,
2013-10-16 17:08:00,81.9,71.6,29.89,SW,214,0.1,2.3,71,0.00,SCT,,0.00,WeatherDisplay:10.37,2013-10-16 21:08:00,
2013-10-16 17:13:00,81.8,71.1,29.89,WNW,295,1.7,2.3,70,0.00,FEW,,0.00,WeatherDisplay:10.37,2013-10-16 21:13:00,
2013-10-16 17:18:00,81.7,71.4,29.89,WNW,291,0.6,1.2,71,0.00,FEW,,0.00,WeatherDisplay:10.37,2013-10-16 21:18:00,
2013-10-16 17:23:00,81.7,71.4,29.89,NNW,342,1.1,3.5,71,0.00,FEW,,0.00,WeatherDisplay:10.37,2013-10-16 21:23:00,
2013-10-16 17:28:00,81.3,71.4,29.89,North,356,1.2,3.5,72,0.00,FEW,,0.00,WeatherDisplay:10.37,2013-10-16 21:28:00,
2013-10-16 17:33:00,80.8,71.3,29.89,NNE,18,0.2,3.5,73,0.00,FEW,,0.00,WeatherDisplay:10.37,2013-10-16 21:33:00,
2013-10-16 17:38:00,80.7,70.8,29.89,NW,322,2.4,3.5,72,0.00,FEW,,0.00,WeatherDisplay:10.37,2013-10-16 21:38:00,
2013-10-16 17:43:00,80.5,71.0,29.89,NW,315,0.3,3.5,73,0.00,FEW,,0.00,WeatherDisplay:10.37,2013-10-16 21:43:00,
2013-10-16 17:48:00,80.1,70.7,29.89,North,9,4.3,8.1,73,0.00,FEW,,0.00,WeatherDisplay:10.37,2013-10-16 21:48:00,
2013-10-16 17:53:00,79.6,70.6,29.89,WNW,295,1.1,3.5,74,0.00,FEW,,0.00,WeatherDisplay:10.37,2013-10-16 21:53:00,
2013-10-16 17:58:00,79.5,70.5,29.89,WNW,285,0.7,2.3,74,0.00,FEW,,0.00,WeatherDisplay:10.37,2013-10-16 21:58:00,
2013-10-16 18:03:00,79.1,69.7,29.89,NE,38,0.6,1.2,73,0.00,CLR,,0.00,WeatherDisplay:10.37,2013-10-16 22:03:00,
2013-10-16 18:08:00,78.9,69.5,29.89,NW,314,1.3,3.5,73,0.00,CLR,,0.00,WeatherDisplay:10.37,2013-10-16 22:08:00,
2013-10-16 18:13:00,78.6,69.6,29.89,NNW,330,0.3,0.0,74,0.00,CLR,,0.00,WeatherDisplay:10.37,2013-10-16 22:13:00,
2013-10-16 18:18:00,78.4,69.4,29.89,NNW,347,0.7,4.6,74,0.00,CLR,,0.00,WeatherDisplay:10.37,2013-10-16 22:18:00,
2013-10-16 18:23:00,78.3,69.3,29.89,NNW,340,1.0,4.6,74,0.00,CLR,,0.00,WeatherDisplay:10.37,2013-10-16 22:23:00,
2013-10-16 18:28:00,78.0,69.0,29.90,North,352,2.2,4.0,74,0.00,CLR,,0.00,WeatherDisplay:10.37,2013-10-16 22:28:00,
2013-10-16 18:33:00,77.8,68.8,29.89,NNW,330,0.6,3.0,74,0.00,CLR,,0.00,WeatherDisplay:10.37,2013-10-16 22:33:00,
2013-10-16 18:38:00,77.7,69.1,29.90,North,352,0.0,1.2,75,0.00,CLR,,0.00,WeatherDisplay:10.37,2013-10-16 22:38:00,
2013-10-16 18:43:00,77.5,68.9,29.90,NNW,347,0.0,1.2,75,0.00,CLR,,0.00,WeatherDisplay:10.37,2013-10-16 22:43:00,
2013-10-16 18:48:00,77.4,68.9,29.90,NNW,338,0.0,1.2,75,0.00,CLR,,0.00,WeatherDisplay:10.37,2013-10-16 22:48:00,
2013-10-16 18:53:00,77.1,68.9,29.89,NNE,15,0.0,1.0,76,0.00,CLR,,0.00,WeatherDisplay:10.37,2013-10-16 22:53:00,
2013-10-16 18:58:00,76.8,69.0,29.89,NW,305,0.4,2.3,77,0.00,CLR,,0.00,WeatherDisplay:10.37,2013-10-16 22:58:00,
2013-10-16 19:03:00,76.6,68.8,29.90,North,356,0.0,1.2,77,0.00,CLR,,0.00,WeatherDisplay:10.37,2013-10-16 23:03:00,
2013-10-16 19:08:00,76.4,68.7,29.90,NW,311,0.2,2.3,77,0.00,CLR,,0.00,WeatherDisplay:10.37,2013-10-16 23:08:00,
2013-10-16 19:13:00,76.2,68.8,29.89,NNW,333,0.3,2.3,78,0.00,CLR,,0.00,WeatherDisplay:10.37,2013-10-16 23:13:00,
2013-10-16 19:18:00,76.2,69.2,29.90,NNW,345,0.0,1.2,79,0.00,CLR,,0.00,WeatherDisplay:10.37,2013-10-16 23:18:00,
2013-10-16 19:23:00,76.0,69.0,29.90,North,352,0.1,1.2,79,0.00,CLR,,0.00,WeatherDisplay:10.37,2013-10-16 23:23:00,
2013-10-16 19:28:00,75.8,69.2,29.90,NNW,329,0.2,1.2,80,0.00,CLR,,0.00,WeatherDisplay:10.37,2013-10-16 23:28:00,
2013-10-16 19:33:00,75.7,69.1,29.90,NNE,12,0.3,1.2,80,0.00,CLR,,0.00,WeatherDisplay:10.37,2013-10-16 23:33:00,
2013-10-16 19:38:00,75.6,69.4,29.90,NNW,340,0.0,1.2,81,0.00,CLR,,0.00,WeatherDisplay:10.37,2013-10-16 23:38:00,
2013-10-16 19:43:00,75.5,69.6,29.90,NNW,333,0.0,1.2,82,0.00,CLR,,0.00,WeatherDisplay:10.37,2013-10-16 23:43:00,
2013-10-16 19:48:00,75.4,69.5,29.90,NNW,338,0.0,0.0,82,0.00,CLR,,0.00,WeatherDisplay:10.37,2013-10-16 23:48:00,
2013-10-16 19:53:00,75.3,69.8,29.90,NNW,340,0.0,1.2,83,0.00,CLR,,0.00,WeatherDisplay:10.37,2013-10-16 23:53:00,
2013-10-16 19:58:00,75.2,69.7,29.91,NNW,333,0.2,1.0,83,0.00,CLR,,0.00,WeatherDisplay:10.37,2013-10-16 23:58:00,
2013-10-16 20:03:00,75.0,69.5,29.91,NNW,335,0.0,0.0,83,0.00,CLR,,0.00,WeatherDisplay:10.37,2013-10-17 00:03:00,
2013-10-16 20:08:00,74.9,69.7,29.91,NNW,327,0.0,1.2,84,0.00,CLR,,0.00,WeatherDisplay:10.37,2013-10-17 00:08:00,
2013-10-16 20:13:00,74.8,69.6,29.91,NNW,335,0.0,0.0,84,0.00,CLR,,0.00,WeatherDisplay:10.37,2013-10-17 00:13:00,
2013-10-16 20:18:00,74.7,69.5,29.91,North,357,0.0,0.0,84,0.00,CLR,,0.00,WeatherDisplay:10.37,2013-10-17 00:18:00,
2013-10-16 20:23:00,74.6,69.4,29.91,North,352,0.1,0.0,84,0.00,CLR,,0.00,WeatherDisplay:10.37,2013-10-17 00:23:00,
2013-10-16 20:28:00,74.6,69.4,29.91,North,358,0.7,1.0,84,0.00,CLR,,0.00,WeatherDisplay:10.37,2013-10-17 00:28:00,
2013-10-16 20:33:00,74.7,69.5,29.92,NNW,330,0.2,2.3,84,0.00,CLR,,0.00,WeatherDisplay:10.37,2013-10-17 00:33:00,
2013-10-16 20:38:00,74.8,69.3,29.92,NNW,332,0.2,2.3,83,0.00,CLR,,0.00,WeatherDisplay:10.37,2013-10-17 00:38:00,
2013-10-16 20:43:00,75.0,69.5,29.92,NNW,328,0.0,0.0,83,0.00,CLR,,0.00,WeatherDisplay:10.37,2013-10-17 00:43:00,
2013-10-16 20:48:00,74.9,69.4,29.92,NNW,345,2.3,3.5,83,0.00,CLR,,0.00,WeatherDisplay:10.37,2013-10-17 00:48:00,
2013-10-16 20:53:00,75.0,69.1,29.92,NNW,338,0.8,2.3,82,0.00,CLR,,0.00,WeatherDisplay:10.37,2013-10-17 00:53:00,
2013-10-16 20:58:00,75.0,69.1,29.92,North,355,0.6,2.3,82,0.00,CLR,,0.00,WeatherDisplay:10.37,2013-10-17 00:58:00,
2013-10-16 21:03:00,75.1,69.6,29.92,North,354,0.3,1.2,83,0.00,CLR,,0.00,WeatherDisplay:10.37,2013-10-17 01:03:00,
2013-10-16 21:08:00,75.0,69.5,29.92,NNW,347,0.8,2.3,83,0.00,CLR,,0.00,WeatherDisplay:10.37,2013-10-17 01:08:00,
2013-10-16 21:13:00,74.8,69.6,29.93,NNW,340,0.0,1.2,84,0.00,CLR,,0.00,WeatherDisplay:10.37,2013-10-17 01:13:00,
2013-10-16 21:18:00,74.8,69.6,29.93,North,8,0.0,0.0,84,0.00,CLR,,0.00,WeatherDisplay:10.37,2013-10-17 01:18:00,
2013-10-16 21:23:00,74.6,69.4,29.93,North,8,0.0,0.0,84,0.00,CLR,,0.00,WeatherDisplay:10.37,2013-10-17 01:23:00,
2013-10-16 21:28:00,74.4,69.6,29.93,NNW,347,2.0,2.0,85,0.00,CLR,,0.00,WeatherDisplay:10.37,2013-10-17 01:28:00,
2013-10-16 21:33:00,74.4,69.6,29.94,NNW,335,1.1,2.3,85,0.00,CLR,,0.00,WeatherDisplay:10.37,2013-10-17 01:33:00,
2013-10-16 21:38:00,74.6,69.4,29.94,North,9,0.0,1.2,84,0.00,CLR,,0.00,WeatherDisplay:10.37,2013-10-17 01:38:00,
2013-10-16 21:43:00,74.6,69.4,29.94,NNW,338,0.4,2.0,84,0.00,CLR,,0.00,WeatherDisplay:10.37,2013-10-17 01:43:00,
2013-10-16 21:48:00,74.4,69.2,29.94,North,360,0.7,2.3,84,0.00,CLR,,0.00,WeatherDisplay:10.37,2013-10-17 01:48:00,
2013-10-16 21:53:00,74.3,69.1,29.94,NNW,328,0.2,2.3,84,0.00,CLR,,0.00,WeatherDisplay:10.37,2013-10-17 01:53:00,
2013-10-16 21:58:00,74.2,69.1,29.94,NNW,347,0.1,1.2,84,0.00,CLR,,0.00,WeatherDisplay:10.37,2013-10-17 01:58:00,
2013-10-16 22:03:00,74.0,69.2,29.94,North,354,0.0,0.0,85,0.00,CLR,,0.00,WeatherDisplay:10.37,2013-10-17 02:03:00,
2013-10-16 22:08:00,73.9,69.1,29.94,North,11,0.0,1.2,85,0.00,CLR,,0.00,WeatherDisplay:10.37,2013-10-17 02:08:00,
2013-10-16 22:13:00,73.8,69.0,29.94,North,355,0.0,1.2,85,0.00,CLR,,0.00,WeatherDisplay:10.37,2013-10-17 02:13:00,
2013-10-16 22:18:00,73.8,69.0,29.94,North,9,0.3,2.3,85,0.00,CLR,,0.00,WeatherDisplay:10.37,2013-10-17 02:18:00,
2013-10-16 22:23:00,73.7,68.9,29.94,North,9,0.0,0.0,85,0.00,CLR,,0.00,WeatherDisplay:10.37,2013-10-17 02:23:00,
2013-10-16 22:28:00,73.6,69.2,29.94,NNW,345,0.3,1.2,86,0.00,CLR,,0.00,WeatherDisplay:10.37,2013-10-17 02:28:00,
2013-10-16 22:33:00,73.6,69.2,29.94,NNW,345,0.0,1.2,86,0.00,CLR,,0.00,WeatherDisplay:10.37,2013-10-17 02:33:00,
2013-10-16 22:38:00,73.7,69.2,29.94,NNW,338,0.0,1.2,86,0.00,CLR,,0.00,WeatherDisplay:10.37,2013-10-17 02:38:00,
2013-10-16 22:43:00,73.6,69.2,29.94,North,355,0.8,2.3,86,0.00,CLR,,0.00,WeatherDisplay:10.37,2013-10-17 02:43:00,
2013-10-16 22:48:00,73.6,69.2,29.94,North,357,0.0,0.0,86,0.00,CLR,,0.00,WeatherDisplay:10.37,2013-10-17 02:48:00,
2013-10-16 22:53:00,73.5,69.1,29.94,North,355,0.0,1.0,86,0.00,CLR,,0.00,WeatherDisplay:10.37,2013-10-17 02:53:00,
2013-10-16 22:58:00,73.3,68.9,29.94,North,356,0.0,0.0,86,0.00,CLR,,0.00,WeatherDisplay:10.37,2013-10-17 02:58:00,
2013-10-16 23:03:00,73.2,69.1,29.94,NNE,19,0.0,0.0,87,0.00,CLR,,0.00,WeatherDisplay:10.37,2013-10-17 03:03:00,
2013-10-16 23:08:00,73.0,68.9,29.94,NNE,19,0.0,1.2,87,0.00,CLR,,0.00,WeatherDisplay:10.37,2013-10-17 03:08:00,
2013-10-16 23:13:00,72.9,68.8,29.94,NNE,22,0.3,1.2,87,0.00,CLR,,0.00,WeatherDisplay:10.37,2013-10-17 03:13:00,
2013-10-16 23:18:00,72.9,69.1,29.94,NE,40,0.6,1.2,88,0.00,CLR,,0.00,WeatherDisplay:10.37,2013-10-17 03:18:00,
2013-10-16 23:23:00,72.9,68.8,29.94,NE,40,0.0,1.2,87,0.00,CLR,,0.00,WeatherDisplay:10.37,2013-10-17 03:23:00,
2013-10-16 23:28:00,72.9,68.8,29.94,NE,40,0.1,1.2,87,0.00,CLR,,0.00,WeatherDisplay:10.37,2013-10-17 03:28:00,
2013-10-16 23:33:00,72.9,68.8,29.94,NE,40,0.0,0.0,87,0.00,CLR,,0.00,WeatherDisplay:10.37,2013-10-17 03:33:00,
2013-10-16 23:38:00,72.8,69.0,29.94,NE,40,0.0,0.0,88,0.00,CLR,,0.00,WeatherDisplay:10.37,2013-10-17 03:38:00,
2013-10-16 23:43:00,72.6,68.8,29.94,NE,40,0.0,0.0,88,0.00,CLR,,0.00,WeatherDisplay:10.37,2013-10-17 03:43:00,
2013-10-16 23:48:00,72.3,68.5,29.94,NE,40,0.0,0.0,88,0.00,CLR,,0.00,WeatherDisplay:10.37,2013-10-17 03:48:00,
2013-10-16 23:53:00,72.1,68.7,29.94,NE,40,0.0,0.0,89,0.00,CLR,,0.00,WeatherDisplay:10.37,2013-10-17 03:53:00,
2013-10-16 23:58:00,71.8,68.4,29.94,NE,40,0.0,0.0,89,0.00,CLR,,0.00,WeatherDisplay:10.37,2013-10-17 03:58:00,